QTF479 YMML-YSSY

Flight info

Callsign QTF479
Flight time N/A
Altitude 39000
Route DOSEL2/34 DOSEL Y59 RIVET
Aircraft A333/H-SDE3GHIJ2J3J5M1RVWXY/LB2D1

Departure

Time 2026-05-04 12:33
Airport Melbourne Airport (YMML)

Arrival

Time N/A
Airport Sydney Kingsford Smith International Airport (YSSY)
Time Latitude Longitude Altitude Speed Heading
2026-05-04 11:50 -37.66891 144.84345 376 ft 0 kts 82°
2026-05-04 12:21 -37.66893 144.84332 350 ft 2 kts 84°
2026-05-04 12:21 -37.66894 144.84311 346 ft 2 kts 86°
2026-05-04 12:21 -37.66895 144.84290 375 ft 2 kts 90°
2026-05-04 12:21 -37.66894 144.84270 375 ft 2 kts 96°
2026-05-04 12:22 -37.66891 144.84250 376 ft 2 kts 106°
2026-05-04 12:22 -37.66885 144.84231 377 ft 2 kts 123°
2026-05-04 12:22 -37.66874 144.84215 377 ft 2 kts 149°
2026-05-04 12:22 -37.66860 144.84208 378 ft 2 kts 168°
2026-05-04 12:23 -37.66855 144.84206 378 ft 0 kts 171°
2026-05-04 12:25 -37.66857 144.84207 378 ft 1 kts 171°
2026-05-04 12:25 -37.66860 144.84207 378 ft 0 kts 171°
2026-05-04 12:26 -37.66870 144.84209 378 ft 6 kts 171°
2026-05-04 12:26 -37.66939 144.84220 377 ft 12 kts 175°
2026-05-04 12:27 -37.67069 144.84244 375 ft 19 kts 169°
2026-05-04 12:27 -37.67176 144.84266 376 ft 18 kts 172°
2026-05-04 12:27 -37.67355 144.84298 375 ft 34 kts 172°
2026-05-04 12:27 -37.67579 144.84342 367 ft 34 kts 171°
2026-05-04 12:28 -37.67809 144.84385 360 ft 28 kts 171°
2026-05-04 12:28 -37.68056 144.84430 355 ft 44 kts 172°
2026-05-04 12:28 -37.68303 144.84469 341 ft 29 kts 181°
2026-05-04 12:28 -37.68473 144.84382 335 ft 20 kts 181°
2026-05-04 12:29 -37.68561 144.84360 332 ft 7 kts 250°
2026-05-04 12:29 -37.68559 144.84307 332 ft 6 kts 273°
2026-05-04 12:29 -37.68558 144.84271 332 ft 0 kts 271°
2026-05-04 12:31 -37.68558 144.84270 332 ft 1 kts 271°
2026-05-04 12:32 -37.68561 144.84210 333 ft 12 kts 266°
2026-05-04 12:32 -37.68454 144.84071 337 ft 30 kts 347°
2026-05-04 12:32 -37.68027 144.83988 355 ft 91 kts 353°
2026-05-04 12:33 -37.67235 144.83848 385 ft 139 kts 350°
2026-05-04 12:33 -37.66193 144.83647 655 ft 163 kts 354°
2026-05-04 12:33 -37.64986 144.83440 993 ft 188 kts 355°
2026-05-04 12:33 -37.63579 144.83241 1418 ft 218 kts 354°
2026-05-04 12:34 -37.61997 144.83085 1976 ft 236 kts 353°
2026-05-04 12:34 -37.60312 144.82947 2620 ft 249 kts 352°
2026-05-04 12:34 -37.58544 144.82874 3331 ft 262 kts 357°
2026-05-04 12:34 -37.56687 144.83141 4139 ft 274 kts
2026-05-04 12:35 -37.54879 144.84013 4783 ft 279 kts 27°
2026-05-04 12:35 -37.53252 144.85327 4964 ft 283 kts 31°
2026-05-04 12:35 -37.51581 144.86659 4984 ft 283 kts 28°
2026-05-04 12:35 -37.49895 144.87874 5230 ft 287 kts 26°
2026-05-04 12:36 -37.48067 144.89104 5509 ft 311 kts 26°
2026-05-04 12:36 -37.46084 144.90388 6032 ft 329 kts 26°
2026-05-04 12:36 -37.44106 144.91914 6879 ft 339 kts 37°
2026-05-04 12:36 -37.42434 144.94059 7778 ft 347 kts 56°
2026-05-04 12:37 -37.41062 144.96604 8479 ft 356 kts 61°
2026-05-04 12:37 -37.39763 144.99279 9233 ft 362 kts 62°
2026-05-04 12:37 -37.38453 145.01976 10030 ft 365 kts 61°
2026-05-04 12:37 -37.37087 145.04686 10723 ft 369 kts 59°
2026-05-04 12:38 -37.35657 145.07370 11556 ft 367 kts 58°
2026-05-04 12:38 -37.34219 145.09991 12512 ft 363 kts 58°
2026-05-04 12:38 -37.32780 145.12591 13297 ft 365 kts 58°
2026-05-04 12:38 -37.31318 145.15212 13991 ft 368 kts 58°
2026-05-04 12:39 -37.29840 145.17839 14582 ft 371 kts 58°
2026-05-04 12:39 -37.28338 145.20497 15173 ft 375 kts 58°
2026-05-04 12:39 -37.26820 145.23172 15764 ft 378 kts 57°
2026-05-04 12:39 -37.25291 145.25865 16356 ft 381 kts 57°
2026-05-04 12:40 -37.23747 145.28581 16967 ft 383 kts 57°
2026-05-04 12:40 -37.22196 145.31311 17520 ft 386 kts 57°
2026-05-04 12:40 -37.20626 145.34072 18072 ft 389 kts 57°
2026-05-04 12:40 -37.19048 145.36846 18571 ft 392 kts 57°
2026-05-04 12:41 -37.17460 145.39632 19015 ft 395 kts 57°
2026-05-04 12:41 -37.15852 145.42454 19474 ft 398 kts 57°
2026-05-04 12:41 -37.14237 145.45284 19923 ft 400 kts 57°
2026-05-04 12:41 -37.12611 145.48132 20369 ft 403 kts 57°
2026-05-04 12:42 -37.10977 145.50993 20815 ft 405 kts 57°
2026-05-04 12:42 -37.09332 145.53869 21277 ft 407 kts 57°
2026-05-04 12:42 -37.07677 145.56758 21732 ft 409 kts 57°
2026-05-04 12:42 -37.06018 145.59657 22132 ft 411 kts 57°
2026-05-04 12:43 -37.04346 145.62575 22545 ft 414 kts 57°
2026-05-04 12:43 -37.02663 145.65509 22916 ft 416 kts 57°
2026-05-04 12:43 -37.00965 145.68466 23292 ft 419 kts 57°
2026-05-04 12:43 -36.99260 145.71432 23654 ft 422 kts 57°
2026-05-04 12:44 -36.97545 145.74413 23968 ft 424 kts 57°
2026-05-04 12:44 -36.95815 145.77416 24269 ft 426 kts 57°
2026-05-04 12:44 -36.94079 145.80421 24606 ft 427 kts 56°
2026-05-04 12:44 -36.92341 145.83431 24949 ft 428 kts 56°
2026-05-04 12:45 -36.90596 145.86457 25226 ft 430 kts 56°
2026-05-04 12:45 -36.88841 145.89495 25487 ft 433 kts 55°
2026-05-04 12:45 -36.87073 145.92553 25727 ft 435 kts 55°
2026-05-04 12:45 -36.85294 145.95622 26003 ft 437 kts 54°
2026-05-04 12:46 -36.83530 145.98666 26257 ft 439 kts 54°
2026-05-04 12:46 -36.81709 146.01800 26510 ft 441 kts 54°
2026-05-04 12:46 -36.79930 146.04861 26745 ft 443 kts 53°
2026-05-04 12:46 -36.78121 146.07969 27058 ft 443 kts 53°
2026-05-04 12:47 -36.76306 146.11090 27315 ft 445 kts 53°
2026-05-04 12:47 -36.74484 146.14223 27524 ft 448 kts 53°
2026-05-04 12:47 -36.72649 146.17374 27747 ft 450 kts 52°
2026-05-04 12:47 -36.70808 146.20528 28009 ft 452 kts 52°
2026-05-04 12:48 -36.68950 146.23710 28233 ft 453 kts 52°
2026-05-04 12:48 -36.67089 146.26893 28464 ft 455 kts 52°
2026-05-04 12:48 -36.65221 146.30085 28685 ft 457 kts 52°
2026-05-04 12:48 -36.63345 146.33284 28946 ft 457 kts 52°
2026-05-04 12:49 -36.61471 146.36481 29199 ft 458 kts 51°
2026-05-04 12:49 -36.59592 146.39684 29392 ft 460 kts 51°
2026-05-04 12:49 -36.57700 146.42906 29595 ft 462 kts 51°
2026-05-04 12:49 -36.55800 146.46137 29809 ft 463 kts 51°
2026-05-04 12:50 -36.53895 146.49373 30007 ft 465 kts 51°
2026-05-04 12:50 -36.51983 146.52619 30200 ft 467 kts 51°
2026-05-04 12:50 -36.50058 146.55884 30347 ft 468 kts 51°
2026-05-04 12:51 -36.46187 146.62440 30591 ft 472 kts 51°
2026-05-04 12:51 -36.44240 146.65732 30752 ft 474 kts 51°
2026-05-04 12:51 -36.42305 146.69002 30898 ft 475 kts 51°
2026-05-04 12:51 -36.40346 146.72308 31047 ft 477 kts 51°
2026-05-04 12:52 -36.38379 146.75625 31201 ft 478 kts 51°
2026-05-04 12:52 -36.36403 146.78954 31336 ft 480 kts 51°
2026-05-04 12:52 -36.34422 146.82289 31467 ft 481 kts 51°
2026-05-04 12:52 -36.32435 146.85630 31608 ft 482 kts 51°
2026-05-04 12:53 -36.30447 146.88970 31816 ft 481 kts 51°
2026-05-04 12:53 -36.28477 146.92277 31952 ft 483 kts 51°
2026-05-04 12:53 -36.26478 146.95626 32073 ft 484 kts 51°
2026-05-04 12:53 -36.24474 146.98979 32230 ft 485 kts 51°
2026-05-04 12:54 -36.22461 147.02341 32371 ft 485 kts 51°
2026-05-04 12:54 -36.18429 147.09061 32622 ft 487 kts 51°
2026-05-04 12:54 -36.16405 147.12419 32789 ft 487 kts 51°
2026-05-04 12:55 -36.14377 147.15772 33000 ft 486 kts 51°
2026-05-04 12:55 -36.12354 147.19112 33166 ft 486 kts 51°
2026-05-04 12:55 -36.10324 147.22459 33328 ft 486 kts 51°
2026-05-04 12:55 -36.08293 147.25804 33456 ft 487 kts 51°
2026-05-04 12:56 -36.06260 147.29150 33568 ft 488 kts 51°
2026-05-04 12:56 -36.02866 147.34732 33788 ft 489 kts 51°
2026-05-04 12:56 -36.00825 147.38088 33969 ft 488 kts 51°
2026-05-04 12:57 -35.98130 147.42514 34258 ft 486 kts 51°
2026-05-04 12:57 -35.96759 147.44765 34372 ft 485 kts 51°
2026-05-04 12:57 -35.94729 147.48090 34500 ft 485 kts 51°
2026-05-04 12:57 -35.92697 147.51414 34608 ft 486 kts 51°
2026-05-04 12:58 -35.90662 147.54741 34731 ft 485 kts 51°
2026-05-04 12:58 -35.88629 147.58064 34839 ft 486 kts 51°
2026-05-04 12:58 -35.86592 147.61390 34956 ft 486 kts 51°
2026-05-04 12:58 -35.84557 147.64711 35084 ft 486 kts 51°
2026-05-04 12:59 -35.82516 147.68038 35225 ft 485 kts 51°
2026-05-04 12:59 -35.80487 147.71344 35364 ft 483 kts 51°
2026-05-04 12:59 -35.78538 147.74517 35461 ft 484 kts 51°
2026-05-04 12:59 -35.76502 147.77827 35563 ft 485 kts 51°
2026-05-04 13:00 -35.74466 147.81131 35676 ft 485 kts 51°
2026-05-04 13:00 -35.72428 147.84441 35794 ft 485 kts 51°
2026-05-04 13:00 -35.70391 147.87744 35907 ft 485 kts 51°
2026-05-04 13:00 -35.68353 147.91046 36008 ft 485 kts 51°
2026-05-04 13:01 -35.66312 147.94349 36106 ft 484 kts 51°
2026-05-04 13:01 -35.62255 148.00909 36277 ft 486 kts 51°
2026-05-04 13:02 -35.58157 148.07521 36486 ft 486 kts 51°
2026-05-04 13:02 -35.56111 148.10818 36597 ft 486 kts 51°
2026-05-04 13:02 -35.54063 148.14116 36698 ft 486 kts 51°
2026-05-04 13:03 -35.49963 148.20709 36802 ft 487 kts 51°
2026-05-04 13:03 -35.45854 148.27304 37030 ft 486 kts 51°
2026-05-04 13:03 -35.43803 148.30593 37140 ft 486 kts 51°
2026-05-04 13:04 -35.41750 148.33882 37241 ft 486 kts 51°
2026-05-04 13:04 -35.37629 148.40482 37157 ft 488 kts 51°
2026-05-04 13:05 -35.33514 148.47055 37121 ft 486 kts 51°
2026-05-04 13:05 -35.29411 148.53601 37118 ft 484 kts 51°
2026-05-04 13:06 -35.25317 148.60125 37011 ft 482 kts 51°
2026-05-04 13:06 -35.23287 148.63373 36372 ft 480 kts 51°
2026-05-04 13:06 -35.21257 148.66611 35688 ft 478 kts 50°
2026-05-04 13:06 -35.19234 148.69840 34999 ft 478 kts 50°
2026-05-04 13:07 -35.17216 148.73063 34330 ft 477 kts 50°
2026-05-04 13:07 -35.15206 148.76283 33557 ft 476 kts 50°
2026-05-04 13:07 -35.13203 148.79495 32811 ft 474 kts 50°
2026-05-04 13:07 -35.11216 148.82688 32047 ft 472 kts 50°
2026-05-04 13:08 -35.09233 148.85874 31326 ft 469 kts 50°
2026-05-04 13:08 -35.07270 148.89023 30677 ft 465 kts 50°
2026-05-04 13:08 -35.05317 148.92148 29972 ft 460 kts 49°
2026-05-04 13:08 -35.03383 148.95224 29272 ft 455 kts 49°
2026-05-04 13:09 -35.01497 148.98219 28445 ft 444 kts 49°
2026-05-04 13:09 -34.99628 149.01168 27437 ft 440 kts 49°
2026-05-04 13:09 -34.97753 149.04097 26814 ft 435 kts 49°
2026-05-04 13:09 -34.95911 149.06986 26212 ft 426 kts 49°
2026-05-04 13:10 -34.94134 149.09789 25255 ft 416 kts 49°
2026-05-04 13:10 -34.92409 149.12490 24251 ft 409 kts 49°
2026-05-04 13:10 -34.90676 149.15193 23146 ft 402 kts 49°
2026-05-04 13:10 -34.89019 149.17914 22100 ft 402 kts 56°
2026-05-04 13:11 -34.88126 149.21168 21216 ft 416 kts 83°
2026-05-04 13:11 -34.88487 149.24706 20074 ft 430 kts 110°
2026-05-04 13:11 -34.89615 149.28079 18851 ft 433 kts 117°
2026-05-04 13:11 -34.90942 149.31342 17826 ft 425 kts 121°
2026-05-04 13:12 -34.92349 149.34470 16753 ft 417 kts 122°
2026-05-04 13:12 -34.93786 149.37540 15846 ft 417 kts 123°
2026-05-04 13:12 -34.95222 149.40575 15304 ft 409 kts 123°
2026-05-04 13:12 -34.96635 149.43562 15107 ft 405 kts 123°
2026-05-04 13:13 -34.98047 149.46538 15063 ft 406 kts 123°
2026-05-04 13:13 -34.99468 149.49512 15060 ft 406 kts 124°
2026-05-04 13:13 -35.00918 149.52530 15059 ft 422 kts 123°
2026-05-04 13:13 -35.02447 149.55694 15062 ft 444 kts 122°
2026-05-04 13:14 -35.04024 149.58993 15060 ft 455 kts 121°
2026-05-04 13:14 -35.05598 149.62351 15052 ft 456 kts 120°
2026-05-04 13:14 -35.07148 149.65722 15052 ft 454 kts 118°
2026-05-04 13:14 -35.08461 149.69214 14950 ft 449 kts 112°
2026-05-04 13:15 -35.09552 149.72736 14292 ft 442 kts 109°
2026-05-04 13:15 -35.10517 149.76293 13550 ft 439 kts 107°
2026-05-04 13:15 -35.11400 149.79857 13153 ft 439 kts 106°
2026-05-04 13:15 -35.12246 149.83440 13052 ft 438 kts 105°
2026-05-04 13:16 -35.13074 149.87010 13040 ft 437 kts 105°
2026-05-04 13:16 -35.13896 149.90561 12756 ft 431 kts 105°
2026-05-04 13:16 -35.14702 149.94063 12249 ft 427 kts 105°
2026-05-04 13:16 -35.15495 149.97554 12060 ft 427 kts 105°
2026-05-04 13:17 -35.16287 150.01048 12039 ft 427 kts 105°
2026-05-04 13:17 -35.17015 150.04511 12043 ft 427 kts 103°
2026-05-04 13:17 -35.17664 150.08052 12036 ft 426 kts 101°
2026-05-04 13:17 -35.18267 150.11587 12034 ft 425 kts 101°
2026-05-04 13:18 -35.18849 150.15124 12034 ft 425 kts 101°
2026-05-04 13:18 -35.19423 150.18664 12012 ft 424 kts 100°
2026-05-04 13:18 -35.19942 150.22207 12023 ft 422 kts 98°
2026-05-04 13:18 -35.20390 150.25746 12035 ft 421 kts 99°
2026-05-04 13:19 -35.20959 150.29258 12019 ft 421 kts 101°
2026-05-04 13:19 -35.21609 150.32745 12013 ft 422 kts 103°
2026-05-04 13:19 -35.22320 150.36234 12007 ft 422 kts 101°
2026-05-04 13:19 -35.22663 150.39784 12017 ft 419 kts 90°
2026-05-04 13:20 -35.22625 150.43322 12014 ft 416 kts 85°
2026-05-04 13:20 -35.22407 150.46844 11987 ft 413 kts 82°
2026-05-04 13:20 -35.22106 150.50312 12014 ft 408 kts 81°
2026-05-04 13:20 -35.21774 150.53745 12007 ft 406 kts 81°
2026-05-04 13:21 -35.21366 150.57156 12009 ft 405 kts 77°
2026-05-04 13:21 -35.20753 150.60511 12009 ft 403 kts 73°
2026-05-04 13:21 -35.20036 150.63810 12006 ft 401 kts 72°
2026-05-04 13:21 -35.19271 150.67085 11973 ft 399 kts 71°
2026-05-04 13:22 -35.18507 150.70314 11410 ft 392 kts 71°
2026-05-04 13:22 -35.17744 150.73505 10632 ft 391 kts 71°
2026-05-04 13:22 -35.16968 150.76684 10182 ft 390 kts 70°
2026-05-04 13:22 -35.16181 150.79844 9984 ft 388 kts 70°
2026-05-04 13:23 -35.15402 150.82975 9408 ft 384 kts 71°
2026-05-04 13:23 -35.14509 150.86030 9056 ft 380 kts 63°
2026-05-04 13:23 -35.13239 150.88849 9004 ft 377 kts 56°
2026-05-04 13:23 -35.11799 150.91502 9002 ft 373 kts 53°
2026-05-04 13:24 -35.10290 150.94074 9002 ft 371 kts 51°
2026-05-04 13:24 -35.08755 150.96604 8997 ft 371 kts 51°
2026-05-04 13:24 -35.07205 150.99122 8997 ft 370 kts 51°
2026-05-04 13:25 -35.04093 151.04130 8997 ft 370 kts 50°
2026-05-04 13:25 -35.02480 151.06568 8997 ft 370 kts 48°
2026-05-04 13:25 -35.00795 151.08928 8999 ft 369 kts 46°